COSMOS 2251 DEB, 36550

Orbit data source: Space-Track

COSMOS 2251 DEB, 36550 is space debris in LEO originally from a launch on Wed, 16 Jun 1993 UTC launched from the Plesetsk Missile And Space Complex (PKMTR). The debris from Iridium 33, an American commercial communications satellite, has been tracked extensively since its accidental collision with the defunct Russian satellite Cosmos 2251 in 2009. This event, occurring at high speed in low Earth orbit (LEO), generated thousands of pieces of space debris, significantly increasing the risk of further collisions. The Iridium 33 debris cloud has impacted space traffic management and orbital debris mitigation strategies, making it a subject of ongoing study in space situational awareness.

Loading next visibility...
Identifier
36550, 1993-036BDL
Orbit
LEO
Country
Flag of CISCIS
Related business
Manufacturer
Unknown
Mission
Spacecraft
Bus & Motor
Unknown
Mass
Unknown
Launch date (UTC)
1993-06-16 (33 years ago)
Launch vehicle
Unknown
Launch site
Plesetsk Missile And Space Complex (PKMTR)
Object type
Payload
Rocket body
Debris
Shape & HBR
Unknown shape, 0.1 m
Radar Cross Section
Small (<0.1 m²)

Expand to show TLE details & history
Last TLE update: 1 day ago

TLE from 1 day ago
0 COSMOS 2251 DEB
1 36550U 93036BDL 25350.84352561  .00001234  00000-0  49932-3 0  9999
2 36550  74.0437 185.3179 0078174 235.0722 124.3066 14.27212033846542
Epoch: 2025-12-16T20:14Z
TLE epoch observation values (Epoch: 2025-12-16T20:14:40.612Z)
Latitude
0.00003°
Longitude
155.92677°
Altitude
835.6 km
Speed
7.419 km/s
True Right ascension
12h 21m 16s
True Declination
0° 00' 00"
Sunlit
Object was in daylight at epoch
Visualization orbit readout
Latitude
Unknown
Longitude
Unknown
Altitude
Unknown
Speed
Unknown
Apparent Right ascension
Unknown
Apparent Declination
Unknown
Sunlit
N/A
Visualization observer readout
Local Sidereal Time
04:05:41
Azimuth
Unknown
Elevation
Unknown
Doppler factor
Unknown
Orbital elements
Apogee altitude
854.802 km
Perigee altitude
742.594 km
Semi-major axis
7,176.835 km
Eccentricity
0.00782
Inclination
74.0437°
RAAN
185.3179°
Arg. of periapsis
235.0722°
True anomaly
125.04249°
Mean anomaly
124.3066°
Eccentric anomaly
124.67495°
Mean motion
3.5698 °/min
Orbital period
100.85 mins
BSTAR
0.00049932

Documentation

Showing up to 5 results
|